Regional Weather Roundup
Issued by NWS

Home | Current Version | Previous Version | Graphics & Text | Print | Product List | Glossary On
Versions: 1 2 3 4 5 6 7 8 9 10 11 12 13 14 15 16 17 18 19 20 21 22 23 24 25 26 27 28 29 30 31 32 33 34 35 36 37 38 39 40 41 42 43 44 45 46 47 48 49 50
000
ASUS45 KCYS 302010
RWRWY

WYOMING REGIONAL WEATHER ROUNDUP
NATIONAL WEATHER SERVICE CHEYENNE WY
200 PM MDT TUE AUG 30 2016

NOTE:  "FAIR" INDICATES FEW OR NO CLOUDS BELOW 12,000 FEET
WITH NO SIGNIFICANT WEATHER AND/OR OBSTRUCTIONS TO VISIBILITY.

WYZ001-302100-
YELLOWSTONE NATIONAL PARK

CITY           SKY/WX    TMP DP  RH WIND       PRES   REMARKS
LK YELLOWSTONE   N/A     73  40  30 VRB7      30.42F
W YELLOWSTONE  NOT AVBL

$$
WYZ002>013-054>058-071-098>099-302100-
NORTHERN WYOMING

CITY           SKY/WX    TMP DP  RH WIND       PRES   REMARKS
JACKSON        SUNNY     81  30  16 SW5       30.30F
CODY           FAIR      90  34  13 E8        30.18F
GREYBULL       FAIR      94  31  10 S13G22    30.11F
WORLAND        FAIR      92  34  13 W6        30.13F
SHERIDAN       FAIR      95  34  11 SE13G22   30.11F HX  90
BUFFALO        FAIR      92  32  12 S20G31    30.21F
GILLETTE       FAIR      87  39  18 S17G24    30.21F
HULETT         FAIR      84  41  21 SW14      30.24F
NEWCASTLE      FAIR      81  48  32 SE15G21   30.26F

$$
WYZ014>020-022>026-101>103-302100-
CENTRAL WYOMING

CITY           SKY/WX    TMP DP  RH WIND       PRES   REMARKS
BIG PINEY      FAIR      81  31  16 CALM      30.37F
PINEDALE       FAIR      81  25  12 SE3       30.37F
DUBOIS         FAIR      81  25  12 E10G18    30.35F
LANDER         FAIR      86  34  15 VRB5      30.26F
RIVERTON       FAIR      84  33  16 VRB5      30.26F
CASPER         FAIR      83  44  25 SE6       30.27F
DOUGLAS        FAIR      84  41  21 SE16G24   30.27F

$$
WYZ021-027>030-104>119-302100-
SOUTHERN WYOMING

CITY           SKY/WX    TMP DP  RH WIND       PRES   REMARKS
EVANSTON       FAIR      81  16   9 MISG      30.34F
FORT BRIDGER   FAIR      82  28  14 SE5G17    30.38F
ROCK SPRINGS   FAIR      80  23  12 MISG      30.34F
DIXON          FAIR      82  35  18 W9G16     30.33F
RAWLINS        FAIR      79  33  19 S6        30.36F
SARATOGA       FAIR      79  34  19 W5G17     30.36F
LARAMIE        FAIR      72  39  30 MISG      30.39F
CHEYENNE       FAIR      72  52  49 SE10      30.37S
TORRINGTON     FAIR      83  55  38 SE10G17   30.24F
PINE BLUFFS    MOCLDY    75  50  41 S10       30.32S

$$



USA.gov is the U.S. government's official web portal to all federal, state and local government web resources and services.